Location: Newark
(48.1500°N, 2.9667°W)
Time: 19:39:55
(UTC+00:00)

A-11 Canister half - Pass Details

Date: 02 February 2020
Orbit: 1517 x 1683 km, 47.2° (Epoch: 19 February)

Event Time Altitude Azimuth Distance (km) Brightness Sun altitude
Rises 21:17:32 0° 223° (SW) 4,804 11.8 -40.6°
Reaches altitude 10° 21:20:47 10° 218° (SW) 3,797 11.1 -41.1°
Enters shadow 21:23:45 22° 210° (SSW) 2,937 10.4 -41.5°
